Location: Caltech
(34.1382°N, 118.1253°W)
Time: 09:25:44
(UTC-07:00)

COSMOS 2428 - Visible Passes

Search period start: 23 May 2015 00:00
Search period end: 02 June 2015 00:00
Orbit: 844 x 857 km, 71.0° (Epoch: 23 May)

Date Brightness Start Highest point End Pass type
(mag) Time Alt. Az. Time Alt. Az. Time Alt. Az.
23 May 5.2 00:30:06 10° W 00:32:40 13° NW 00:35:06 10° NNW visible
23 May 2.5 22:35:03 79° SE 22:35:13 80° ESE 22:40:57 10° NNE visible
24 May 5.3 00:17:30 10° W 00:20:17 13° NW 00:22:45 10° NNW visible
24 May 2.5 22:21:42 58° S 22:22:51 80° ESE 22:28:35 10° NNE visible
25 May 5.3 00:05:07 10° W 00:07:55 13° NW 00:10:24 10° NNW visible
25 May 2.6 22:08:04 36° S 22:10:29 79° ESE 22:16:13 10° NNE visible
25 May 5.4 23:52:43 10° W 23:55:32 13° NW 23:58:03 10° NNW visible
26 May 2.6 21:53:57 19° SSW 21:58:07 79° ESE 22:03:50 10° NNE visible
26 May 5.4 23:40:20 10° W 23:43:10 13° NW 23:45:41 10° NNW visible
27 May 2.6 21:40:06 10° SSW 21:45:45 79° ESE 21:51:28 10° NNE visible
27 May 5.4 23:27:56 10° W 23:30:47 13° NW 23:33:20 10° NNW visible
28 May 2.6 21:27:43 10° SSW 21:33:23 79° ESE 21:39:06 10° NNE visible
28 May 5.5 23:15:33 10° W 23:18:25 13° NW 23:20:59 10° NNW visible
29 May 2.6 21:15:21 10° SSW 21:21:00 78° ESE 21:26:44 10° NNE visible
29 May 5.5 23:03:09 10° W 23:06:02 13° NW 23:08:37 10° NNW visible
30 May 2.6 21:02:59 10° SSW 21:08:38 78° ESE 21:14:22 10° NNE visible
30 May 5.6 22:50:46 10° W 22:53:40 14° NW 22:56:16 10° NNW visible
31 May 2.7 20:50:37 10° SSW 20:56:16 78° ESE 21:01:59 10° NNE visible
31 May 5.6 22:38:22 10° W 22:41:17 14° NW 22:43:54 10° NNW visible
01 Jun 2.7 20:38:15 10° SSW 20:43:54 78° ESE 20:49:37 10° NNE visible
01 Jun 5.7 22:25:59 10° W 22:28:55 14° NW 22:31:33 10° NNW visible
